Retour au catalogue

STARLINK-34410

ActifCommunicationsVLEO
NORAD 64440·PAYLOAD·🇺🇸 United States

Lancé Jun 18, 2025 depuis Cape Canaveral Space Force Station

Loading…

Prochains Passages (prochaines 24 heures)

TLE

FraisSource: CelesTrak SupGP

Époque: Sep 15, 2026, 03:57 UTC

1 64440C 25130C   26258.16506944 -.00012646  00000+0 -37359-3 0  2585
2 64440  53.1585 286.6457 0001296  90.0800  68.2222 15.34400752    14

Suivez STARLINK-34410 en temps réel avec AllMySat

Download on the App Store